STARLINK-1872 (46742 NORAD) Tracking and Keplerian Element Data

This shows tracking and keplerian element data for the satellite.

Feedback or suggestion? Click here.




ElementValue
Catalog46742
NameSTARLINK-1872
Epoch Orbit181
Epoch Day330.91667824
Epoch Year2020
RAAN2.004
Inclination53.0549
Eccentricity0.0001091
Argument of Perigee64.0107
Mean Anonmoly179.2072
Mean Motion15.62805761
Decay Rate-0.0001822
L11 46742U 20074D 20330.91667824 -.00018220 00000-0 -19320-3 0 9990
L22 46742 53.0549 2.0040 0001091 64.0107 179.2072 15.62805761 1815

Live tracking and technical data element details for STARLINK-1872 (NORAD 46742). STARLINK-1872 can be tracked NOW for your location showing map with azimuth and elevation plus other details from your city location.

Track the satellite on the map from your city or location and see movement details for azimuth, elevation, latitude, longitude, range, height, and movement on the map or in text.







IsCatalogInMostPopularTable: catalog: 46742, numindb: 6
Update: records affected: 1



GetName: 46742 STARLINK-1872

Hit Count: updated at: Thu, 26 Nov 2020 21:32:50 GMT